EW9774 Weather Reports


Display with metric or nautical units.
time (UTC)temp
F
wind
direction
speed
MPH
gust
MPH
rain 1hr
in
rain 24hr
in
rain mn
in
humidity
%
barometer
mb
20260901144530 54 179 1.0 3.0 0.00 0.00 0.00 91 1011.7
20260901143030 53 193 2.0 4.0 0.00 0.00 0.00 91 1011.7
20260901140033 53 202 2.0 4.0 0.00 0.00 0.00 89 1011.4
20260901133029 54 175 2.0 4.0 0.00 0.00 0.00 88 1011.1
20260901131531 54 194 2.0 5.0 0.00 0.00 0.00 88 1011.0
20260901130029 54 167 2.0 5.0 0.00 0.00 0.00 88 1010.8
20260901124609 54 196 2.0 4.0 0.00 0.00 0.00 88 1010.8
20260901123031 54 177 2.0 4.0 0.00 0.00 0.00 87 1010.7
20260901121608 54 197 2.0 4.0 0.00 0.00 0.00 86 1010.7
20260901120106 54 180 2.0 4.0 0.00 0.00 0.00 86 1010.7
20260901114603 54 185 3.0 5.0 0.00 0.00 0.00 86 1010.7
20260901111609 53 190 3.0 4.0 0.00 0.00 0.00 86 1010.6
20260901103030 52 190 2.0 4.0 0.00 0.00 0.00 85 1010.5
20260901101530 52 202 1.0 4.0 0.00 0.00 0.00 85 1010.5
20260901100030 52 191 1.0 4.0 0.00 0.00 0.00 84 1010.4
20260901094530 52 182 1.0 3.0 0.00 0.00 0.00 83 1010.4
20260901093030 52 180 1.0 4.0 0.00 0.00 0.00 82 1010.4
20260901084647 53 202 0.0 0.0 0.00 0.00 0.00 82 1010.2
20260901081531 53 187 0.0 3.0 0.00 0.00 0.00 79 1010.4
20260901080029 53 180 2.0 3.0 0.00 0.00 0.00 77 1010.2
20260901074530 54 183 3.0 4.0 0.00 0.00 0.00 75 1010.1
20260901073032 56 185 1.0 3.0 0.00 0.00 0.00 72 1010.1
20260901071529 57 201 1.0 4.0 0.00 0.00 0.00 72 1010.0
20260901070148 58 193 2.0 4.0 0.00 0.00 0.00 68 1009.9
20260901064531 60 188 2.0 4.0 0.00 0.00 0.00 64 1009.9
20260901063030 61 194 2.0 7.0 0.00 0.00 0.00 63 1010.0
20260901061531 58 181 5.0 10.0 0.00 0.00 0.00 69 1010.0
20260901060031 57 181 3.0 6.0 0.00 0.00 0.00 69 1010.0
20260901054530 60 197 0.0 5.0 0.00 0.00 0.00 65 1010.1
20260901053031 62 147 1.0 3.0 0.00 0.00 0.00 60 1010.0
20260901051532 62 180 5.0 11.0 0.00 0.00 0.00 61 1009.9
20260901050032 60 180 5.0 12.0 0.00 0.00 0.00 65 1010.0
20260901044530 60 180 4.0 6.0 0.00 0.00 0.00 63 1010.0
20260901043108 62 198 3.0 6.0 0.00 0.00 0.00 61 1009.8
20260901041530 63 189 3.0 5.0 0.00 0.00 0.00 58 1009.6
20260901040030 64 191 3.0 8.0 0.00 0.00 0.00 57 1009.5
20260901034608 65 189 2.0 4.0 0.00 0.00 0.00 56 1009.3
20260901033032 66 180 2.0 5.0 0.00 0.00 0.00 53 1008.9
20260901031607 66 191 2.0 5.0 0.00 0.00 0.00 53 1008.9
20260901030032 66 195 4.0 7.0 0.00 0.00 0.00 54 1008.7
20260901024606 65 182 3.0 6.0 0.00 0.00 0.00 56 1008.6
20260901023030 66 202 2.0 4.0 0.00 0.00 0.00 58 1008.5
20260901021529 67 192 2.0 4.0 0.00 0.00 0.00 59 1008.5
20260901020032 69 181 3.0 4.0 0.00 0.00 0.00 57 1008.4
20260901013105 75 180 3.0 3.0 0.00 0.00 0.00 49 1008.5
20260901011533 78 180 3.0 4.0 0.00 0.00 0.00 45 1008.6
20260901010029 79 277 1.0 4.0 0.00 0.00 0.00 39 1008.7
20260901004608 81 349 0.0 2.0 0.00 0.00 0.00 33 1008.9
20260901003034 81 45 1.0 3.0 0.00 0.00 0.00 34 1009.0
20260901001529 81 67 1.0 4.0 0.00 0.00 0.00 34 1009.1
20260901000031 82 52 2.0 5.0 0.00 0.00 0.00 32 1009.2
20260831234531 82 37 2.0 7.0 0.00 0.00 0.00 32 1009.4
20260831233032 82 38 3.0 6.0 0.00 0.00 0.00 31 1009.5
20260831231530 82 15 4.0 8.0 0.00 0.00 0.00 30 1009.7
20260831230033 82 40 3.0 7.0 0.00 0.00 0.00 31 1009.9
20260831224532 82 45 4.0 8.0 0.00 0.00 0.00 31 1010.2
20260831223033 81 50 5.0 10.0 0.00 0.00 0.00 32 1010.5
20260831220030 81 51 5.0 10.0 0.00 0.00 0.00 33 1010.7
20260831211532 79 37 5.0 9.0 0.00 0.00 0.00 37 1011.5
20260831210029 79 42 6.0 12.0 0.00 0.00 0.00 37 1011.7
20260831201531 78 46 7.0 16.0 0.00 0.00 0.00 37 1012.5
20260831200030 78 67 7.0 13.0 0.00 0.00 0.00 37 1012.7
20260831194531 77 66 7.0 15.0 0.00 0.00 0.00 39 1013.0
20260831190029 74 51 6.0 11.0 0.00 0.00 0.00 43 1013.9
20260831184608 73 36 5.0 13.0 0.00 0.00 0.00 45 1014.2
20260831183031 72 30 6.0 11.0 0.00 0.00 0.00 48 1014.5
20260831180029 71 17 1.0 5.0 0.00 0.00 0.00 57 1014.9
20260831174606 69 53 1.0 4.0 0.00 0.00 0.00 59 1015.1
20260831173031 67 73 1.0 4.0 0.00 0.00 0.00 60 1015.2
20260831171532 66 64 1.0 3.0 0.00 0.00 0.00 61 1015.4
20260831170032 65 90 1.0 4.0 0.00 0.00 0.00 63 1015.5
20260831164530 64 122 1.0 4.0 0.00 0.00 0.00 64 1015.8
20260831163030 63 57 1.0 4.0 0.00 0.00 0.00 69 1015.9
20260831160028 60 337 0.0 2.0 0.00 0.00 0.00 76 1016.1
20260831154603 58 337 0.0 2.0 0.00 0.00 0.00 81 1016.2
20260831151530 55 194 0.0 2.0 0.00 0.00 0.00 92 1016.3
20260831150030 53 180 0.0 0.0 0.00 0.00 0.00 95 1016.2